Regional Weather Roundup
Issued by NWS

Home | Current Version | Previous Version | Text Only | Print | Product List | Glossary Off
Versions: 1 2 3 4 5 6 7 8 9 10 11 12 13 14 15 16 17 18 19 20 21 22 23 24 25 26 27 28 29 30 31 32 33 34 35 36 37 38 39 40 41 42 43 44 45 46 47 48 49 50

000
ASUS45 KSLC 220510
RWRUT

UTAH REGIONAL WEATHER ROUNDUP
NATIONAL WEATHER SERVICE SALT LAKE CITY UT
1100 PM MDT SUN SEP 21 2014

UTZ001>011-023>025-220600-

NORTHERN UTAH

CITY           SKY/WX    TMP DP  RH WIND       PRES   REMARKS
HILL AFB       MOCLDY    59  54  82 E13       30.16F
LOGAN          PTCLDY    54  54 100 E3        30.16F
OGDEN          PTCLDY    57  55  93 CALM      30.15S
PROVO AIRPORT  MOCLDY    59  54  82 CALM      30.17S
SALT LAKE CITY MOCLDY    63  59  87 NE3       30.13S
VERNAL         PTCLDY    53  52  96 CALM      30.23S
WENDOVER       MOCLDY    59  52  77 W3        30.14R
HEBER CITY     PTCLDY    52  50  93 CALM      30.22S
WEST JORDAN    PTCLDY    61  54  77 E5        30.16S

$$

UTZ012>022-026-027-220600-

SOUTHERN UTAH

CITY           SKY/WX    TMP DP  RH WIND       PRES   REMARKS
BRYCE CANYON   PTCLDY    48  47  96 W5        30.33S
CEDAR CITY     MOCLDY    59  55  87 CALM      30.20R
MILFORD        MOCLDY    58  53  84 NE3       30.19R
MOAB/CYNLANDS  CLEAR     64  59  83 NE6       30.16R
PRICE          PTCLDY    56  52  86 CALM      30.25R
ST GEORGE      PTCLDY    72  61  68 CALM      30.04S
KANAB            N/A     63  55  77 NW9       30.19R

$$

REGIONAL REPORTS     COLORADO/ARIZONA

CITY           SKY/WX    TMP DP  RH WIND       PRES   REMARKS
CRAIG, CO      CLOUDY    57  52  83 SE7       30.30F
GRAND JUNCTION LGT RAIN  59  57  93 E10       30.21R
RIFLE          MOCLDY    61  57  87 S8        30.26F
MONTROSE       MOCLDY    62  56  80 SW6       30.30R
CORTEZ         LGT RAIN  61  59  93 NE13      30.29F
PAGE, AZ       CLEAR     72  56  57 CALM      30.11R
GRAND CANYON   CLEAR     50  44  80 CALM      30.29R
KINGMAN        CLEAR     67  37  33 S12       30.07R
FLAGSTAFF      CLEAR     54  47  77 VRB3      30.33R

$$

REGIONAL REPORTS    NEVADA/IDAHO/WYOMING

CITY           SKY/WX    TMP DP  RH WIND       PRES   REMARKS
LAS VEGAS, NV  PTCLDY    87  41  19 S8        29.90R
ELY            PTCLDY    50  47  89 SW6       30.25S
ELKO           MOCLDY    56  46  69 SW7       30.16R
POCATELLO, ID  CLEAR     56  55  97 E5        30.15F
BURLEY         FOG       54  53  97 CALM      30.10S VSB 3/4
EVANSTON, WY   PTCLDY    48  46  93 E8        30.30S
ROCK SPRINGS   CLEAR     51  48  89 S6        30.27F

$$



USA.gov is the U.S. government's official web portal to all federal, state and local government web resources and services.